This is the latest recevied weather packets stored in our database for station/object KY4GW. If no packets are shown the sender has not sent any weather packets the latest 10 day(s).
| Time | Temp. | Humidity | Pressure | Rain* | Wind** | Luminosity | Snow |
|---|---|---|---|---|---|---|---|
| 1778085344 | 13.89° C | 70% | 1015.8 hPa | 0 mm | - | 907 W/m² | - |
| 1778085040 | 13.89° C | 70% | 1015.8 hPa | 0 mm | - | 315 W/m² | - |
| 1778084736 | 13.89° C | 71% | 1015.8 hPa | 0 mm | - | 716 W/m² | - |
| 1778084434 | 13.89° C | 70% | 1015.8 hPa | 0 mm | - | 500 W/m² | - |
| 1778084131 | 13.33° C | 70% | 1015.5 hPa | 0 mm | - | 349 W/m² | - |
| 1778083828 | 13.33° C | 72% | 1015.5 hPa | 0 mm | - | 702 W/m² | - |
| 1778083526 | 13.33° C | 72% | 1015.5 hPa | 0 mm | - | 274 W/m² | - |
| 1778083223 | 13.33° C | 71% | 1015.5 hPa | 0 mm | - | 847 W/m² | - |
| 1778082921 | 12.78° C | 72% | 1015.5 hPa | 0 mm | - | 261 W/m² | - |
| 1778081818 | 12.78° C | 73% | 1015.1 hPa | 0 mm | - | 656 W/m² | - |
| 1778081515 | 12.22° C | 75% | 1015.1 hPa | 0 mm | - | 540 W/m² | - |
| 1778081212 | 12.22° C | 76% | 1015.1 hPa | 0 mm | - | 704 W/m² | - |
| 1778080909 | 12.78° C | 74% | 1015.1 hPa | 0 mm | - | 666 W/m² | - |
| 1778080609 | 12.78° C | 76% | 1015.1 hPa | 0 mm | - | 570 W/m² | - |
| 1778080304 | 11.67° C | 74% | 1015.5 hPa | 0 mm | - | 729 W/m² | - |
| 1778080001 | 11.67° C | 78% | 1015.5 hPa | 0 mm | - | 741 W/m² | - |
| 1778079698 | 11.67° C | 77% | 1015.1 hPa | 0 mm | - | 664 W/m² | - |
| 1778079395 | 11.11° C | 78% | 1015.1 hPa | 0 mm | - | 699 W/m² | - |
| 1778079092 | 10.56° C | 81% | 1015.1 hPa | 0 mm | - | 427 W/m² | - |
| 1778078790 | 11.67° C | 80% | 1015.1 hPa | 0 mm | - | 235 W/m² | - |
| 1778078486 | 11.67° C | 77% | 1015.1 hPa | 0 mm | - | 412 W/m² | - |
| 1778078184 | 11.11° C | 80% | 1015.1 hPa | 0 mm | - | 512 W/m² | - |
| 1778077882 | 10.56° C | 82% | 1015.1 hPa | 0 mm | - | 587 W/m² | - |
| 1778077580 | 10.56° C | 81% | 1014.8 hPa | 0 mm | - | 502 W/m² | - |
| 1778077278 | 10° C | 84% | 1014.8 hPa | 0 mm | - | 363 W/m² | - |
* Rain latest hour (hover to see other rain measurements)
** Current wind speed in m/s (hover to see current wind gust speed)